Location: Central Falls
(41.8900°N, 71.3929°W)
Time: 03:52:32
(UTC+00:00)

Tiros 1 - Pass Details

Date: 13 December 2023
Orbit: 625 x 658 km, 48.4° (Epoch: 01 March)

Event Time Altitude Azimuth Distance (km) Brightness Sun altitude
Rises 12:42:50 0° 291° (WNW) 2,988 9.9 5.0°
Reaches altitude 10° 12:45:30 10° 279° (W) 2,072 9.3 5.4°
Maximum altitude 12:49:25 25° 224° (SW) 1,309 8.8 6.0°
Drops below altitude 10° 12:53:18 10° 169° (SSE) 2,055 10.7 6.6°
Sets 12:55:56 0° 156° (SSE) 2,958 11.9 6.9°
